Regional Weather Roundup
Issued by NWS

Home | Current Version | Previous Version | Text Only | Print | Product List | Glossary Off
Versions: 1 2 3 4 5 6 7 8 9 10 11 12 13 14 15 16 17 18 19 20 21 22 23 24 25 26 27 28 29 30 31 32 33 34 35 36 37 38 39 40 41 42 43 44 45 46 47 48 49 50

082
ASUS44 KMEG 181910
RWRTN
TENNESSEE HOURLY STATE WEATHER ROUNDUP
NATIONAL WEATHER SERVICE MEMPHIS TN
100 PM CST SAT NOV 18 2017

TNZ002-004-019-021-049-052-054-088>092-182000-
WEST TENNESSEE

CITY           SKY/WX    TMP DP  RH WIND       PRES   REMARKS
MEMPHIS INTL   CLOUDY    74  64  71 SW15G30   29.56F
NWS MEMPHIS      N/A     72 N/A N/A MISG        N/A
JACKSON        CLOUDY    71  63  75 SW18G29   29.53F
DYERSBURG      CLOUDY    74  63  68 SW24G38   29.47F
SOMERVILLE     CLOUDY    72  63  73 SW20G28   29.55F
COVINGTON      PTSUNNY   73  63  68 SW22G32   29.51F
UNION CITY     CLOUDY    73  63  68 SW17G30   29.44F
BOLIVAR        CLOUDY    72  63  73 S23G31    29.55F
HUNTINGDON     CLOUDY    72  63  73 SW15G24   29.48F
LEXINGTON      CLOUDY    68  63  83 SW16G26   29.54F
SELMER         CLOUDY    70  63  78 SW16G35   29.57F
SAVANNAH       CLOUDY    68  63  83 SW18G29   29.58F
$$

TNZ008-025-027-028-033-062-065-066-182000-
NORTH MIDDLE TENNESSEE

CITY           SKY/WX    TMP DP  RH WIND       PRES   REMARKS
NASHVILLE      CLOUDY    68  59  73 S18G29    29.56F
PORTLAND       CLOUDY    64  61  88 S15G24    29.53F
CLARKSVILLE    CLOUDY    67  61  81 S20G29    29.47F
SMYRNA         CLOUDY    67  60  78 S14G25    29.58F
COOKEVILLE     CLOUDY    63  57  82 SW16G29   29.62F
GALLATIN       CLOUDY    66  59  77 S12G26    29.56F
CROSSVILLE     CLOUDY    57  50  77 S9G22     29.67F
$$

TNZ061-075-076-078-094-096-097-182000-
SOUTH MIDDLE TENNESSEE

CITY           SKY/WX    TMP DP  RH WIND       PRES   REMARKS
FAYETTEVILLE   CLOUDY    66  61  82 S16G28    29.66F
TULLAHOMA      CLOUDY    64  59  82 SW15G25   29.64F
WINCHESTER     CLOUDY    66  57  72 S14       29.69F
MCMINNVILLE    CLOUDY    63  57  82 SW12G23   29.64F
COLUMBIA       PTSUNNY   66  63  88 SW18G26   29.57F
SHELBYVILLE    CLOUDY    66  59  77 S17G25    29.62F
$$

TNZ017-018-042-046-047-182000-
NORTHEAST TENNESSEE

CITY           SKY/WX    TMP DP  RH WIND       PRES   REMARKS
TRI CITIES     CLOUDY    63  47  55 SW10      29.72F
ELIZABETHTON   CLOUDY    66  45  45 W10G20    29.71F
$$

TNZ012-013-036-069-073-074-182000-
CENTRAL EAST TENNESSEE

CITY           SKY/WX    TMP DP  RH WIND       PRES   REMARKS
KNOXVILLE      LGT RAIN  63  54  72 SW23G33   29.70F
OAK RIDGE      CLOUDY    62  53  72 VRB6      29.72F
DOWNTOWN KNOXV CLOUDY    64  52  63 SW12G28   29.71F
GATLINBURG     CLOUDY    66  50  55 SW13      29.71F
MORRISTOWN     CLOUDY    63  50  63 SW7       29.70F
JACKSBORO      CLOUDY    63  52  67 SW17G26   29.70F
$$

TNZ083-085-099-182000-
SOUTHEAST TENNESSEE

CITY           SKY/WX    TMP DP  RH WIND       PRES   REMARKS
CHATTANOOGA    CLOUDY    62  52  69 S14       29.75F
$$

SKY/WX REPORTED AS FAIR MEANS FEW OR NO CLOUDS BELOW
12 THOUSAND FEET.





USA.gov is the U.S. government's official web portal to all federal, state and local government web resources and services.